DELTA 1 DEB

Satellite information

Favourite Embed

Satellite Type and Status

DEBRISIN ORBIT

Key statistics

Satellite DELTA 1 DEB at a glance.

Uptime

18935

Days in orbit

Revolutions

≈ 12.5

Per day

Orbit

SSO

Sun Synchronous Orbit

Inclination

101.8

Latest

Satellite identification and parameters

Extended collection of information and parameters for DELTA 1 DEB.

Object identification

Identified? True

Debris? True

Object name: DELTA 1 DEB

International designator: 1973-086CY

Object number (NORAD): 7134

Object ID (CCSDS): 7134

Country: UNITED STATES OF AMERICA (US)

Current information (Y/N): Y

RCS size: SMALL

Orbital parameters

Period: 114.935 minutes

Inclination: 101.8449 deg

SMA: 7830.579 km

Apoapsis: 1463.595 km

Periapsis: 1441.293 km

RAAN: 22.3849 deg

Eccentricy: 0.00142401

Argument of periapsis: 111.2863 deg

Mean anomaly: 275.1452 deg

Mean motion: 12.52887094 rev/day

Mean motion (dot): 0.00000113 rev/day2

B* drag term: 0.0010024751 1/REarth

Two-line elements (TLE)

Creation date: Sept. 8, 2025, 6:18 p.m.

Reference frame: TEME

Reference center: EARTH

Epoch: Sept. 8, 2025, 8:14 a.m. UTC

TLE line 0: 0 DELTA 1 DEB

TLE line 1: 1 07134U 73086CY 25251.34343692 .00000113 00000-0 10025-2 0 9993

TLE line 2: 2 07134 101.8449 22.3849 0014240 111.2863 275.1452 12.52887094364774

Live tracking on map

Real-time ground track for satellite DELTA 1 DEB.

In-orbit conjunctions

A list of the most updated potential collisions computed for object DELTA 1 DEB.

Target Orbit TCA Probability of collision Miss distance Type
COSMOS 1563 LEO 2024-11-01 18:20:21 0.0002700553 947.0 (m) PAYLOAD
COSMOS 2127 LEO 2024-08-30 02:52:37 0.0002824575 194.0 (m) PAYLOAD

Associated space launch

Meteorological satellite using radiometric imaging

DELTA 1 DEB was lifted into orbit during the mission ‘Delta 0300 | NOAA 3’, on board a Delta 0300 space rocket.

The launch took place on Nov. 6, 1973, 5:02 p.m. from Space Launch Complex 2W.

For more information about the launch, click the button.

Launch to space Delta 0300 | NOAA 3
Delta 0300 | NOAA 3

Agency: N/A

Status: Launch Successful

Launch date: Nov. 6, 1973, 5:02 p.m. UTC

Rocket: Delta 0300

Launch pad: Space Launch Complex 2W

Location: Vandenberg SFB, CA, USA

...

Latest news about this satellite

There are no fresh news available about this satellite. Check back as we update our databases every day.


Newsletter sign-up

Weekly statistics, charts and insights to help you stay on top of the space industry.